Weather History for Morristown, NJ

Change the Weather History Date:

Tuesday, September 24, 2013

  Actual Average Record
Temperature  
Mean Temperature 54 °F -  
Max Temperature 71 °F 71 °F 95 °F (1970)
Min Temperature 37 °F 48 °F 28 °F (1963)
Degree Days  
Heating Degree Days 11    
Growing Degree Days 4 (Base 50)    
Moisture  
Dew Point 41 °F    
Average Humidity 73    
Maximum Humidity 100    
Minimum Humidity 35    
Precipitation  
Precipitation 0.00 in - - ()
Sea Level Pressure  
Sea Level Pressure 30.01 in    
Wind  
Wind Speed 1 mph (NW)    
Max Wind Speed 10 mph    
Max Gust Speed 18 mph    
Visibility 11 miles    
Events      
Averages and records for this station are not official NWS values.
T = Trace of Precipitation, MM = Missing Value Source: NWS Daily Summary

Daily Weather History Graph

Daily Weather History Graph

Search for Another Location

Airport:

Trip Planner

Search our weather history database for the weather conditions in past years. The results will help you decide how hot, cold, wet, or windy it might be!

Date:

Astronomy

Sep. 24, 2013 Rise Set
Actual Time 6:47 AM EDT 6:51 PM EDT
Civil Twilight 6:20 AM EDT 7:18 PM EDT
Nautical Twilight 5:48 AM EDT 7:50 PM EDT
Astronomical Twilight 5:15 AM EDT 8:22 PM EDT
Moon 10:04 PM EDT (9/24) 12:01 PM EDT (9/24)
Length of Visible Light 12h 58m
Length of Day
12h 03m
Waning Gibbous, 73% of the Moon is Illuminated
Sep 24
Waning Gibbous
Sep 26
Last Quarter
Oct 4
New
Oct 11
First Quarter
Oct 18
Full

Hourly Weather History & Observations

Time (EDT) Temp. Dew Point Humidity Pressure Visibility Wind Dir Wind Speed Gust Speed Precip Events Conditions
12:15 AM 46.4 °F 42.8 °F 87% 30.05 in 10.0 mi Calm Calm - N/A   Clear
12:35 AM 44.6 °F 42.8 °F 93% 30.06 in 10.0 mi Calm Calm - N/A   Clear
12:55 AM 44.6 °F 42.8 °F 93% 30.06 in 10.0 mi Calm Calm - N/A   Clear
1:15 AM 44.6 °F 41.0 °F 87% 30.06 in 10.0 mi Calm Calm - N/A   Clear
1:35 AM 44.6 °F 41.0 °F 87% 30.07 in 10.0 mi Calm Calm - N/A   Clear
1:55 AM 42.8 °F 41.0 °F 93% 30.07 in 10.0 mi Calm Calm - N/A   Clear
2:15 AM 42.8 °F 41.0 °F 93% 30.06 in 10.0 mi Calm Calm - N/A   Clear
2:35 AM 42.8 °F 41.0 °F 93% 30.07 in 5.0 mi Calm Calm - N/A   Clear
2:55 AM 42.8 °F 39.2 °F 87% 30.06 in 10.0 mi Calm Calm - N/A   Clear
3:35 AM 42.8 °F 39.2 °F 87% 30.06 in 10.0 mi Calm Calm - N/A   Clear
3:55 AM 42.8 °F 39.2 °F 87% 30.06 in 10.0 mi Calm Calm - N/A   Clear
4:15 AM 42.8 °F 39.2 °F 87% 30.06 in 7.0 mi Calm Calm - N/A   Clear
4:35 AM 41.0 °F 39.2 °F 93% 30.06 in 2.5 mi Calm Calm - N/A   Clear
4:55 AM 41.0 °F 39.2 °F 93% 30.06 in 10.0 mi Calm Calm - N/A   Clear
5:35 AM 41.0 °F 37.4 °F 87% 30.07 in 10.0 mi Calm Calm - N/A   Clear
5:55 AM 41.0 °F 37.4 °F 87% 30.07 in 10.0 mi Calm Calm - N/A   Clear
6:15 AM 41.0 °F 37.4 °F 87% 30.06 in 4.0 mi Calm Calm - N/A   Clear
6:35 AM 39.2 °F 37.4 °F 93% 30.06 in 10.0 mi Calm Calm - N/A   Clear
6:45 AM 37.4 °F 37.4 °F 100% 30.07 in 10.0 mi Calm Calm - N/A   Clear
7:45 AM 41.0 °F 39.2 °F 93% 30.07 in 25.0 mi Calm Calm - N/A   Clear
8:45 AM 50.0 °F 42.8 °F 76% 30.06 in 20.0 mi Calm Calm - N/A   Clear
9:45 AM 55.4 °F 42.8 °F 63% 30.04 in 20.0 mi NW 10.4 mph - N/A   Clear
10:45 AM 59.0 °F 41.0 °F 51% 30.02 in 20.0 mi NW 6.9 mph - N/A   Clear
11:45 AM 62.6 °F 42.8 °F 48% 30.00 in 20.0 mi WNW 5.8 mph - N/A   Clear
12:45 PM 66.2 °F 42.8 °F 43% 29.98 in 20.0 mi NW 10.4 mph 18.4 mph N/A   Clear
1:45 PM 69.8 °F 42.8 °F 38% 29.94 in 20.0 mi WNW 6.9 mph - N/A   Clear
3:45 PM 71.6 °F 42.8 °F 35% 29.92 in 20.0 mi WNW 10.4 mph - N/A   Clear
4:45 PM 71.6 °F 42.8 °F 35% 29.90 in 10.0 mi NNW 6.9 mph - N/A   Clear
5:45 PM 69.8 °F 41.0 °F 35% 29.90 in 10.0 mi NNW 5.8 mph - N/A   Clear
6:45 PM 64.4 °F 42.8 °F 45% 29.91 in 10.0 mi WNW 4.6 mph - N/A   Clear
7:45 PM 62.6 °F 44.6 °F 52% 29.90 in 10.0 mi WNW 4.6 mph - N/A   Clear
8:45 PM 62.6 °F 44.6 °F 52% 29.91 in 10.0 mi NW 6.9 mph - N/A   Clear
9:45 PM 60.8 °F 42.8 °F 52% 29.93 in 10.0 mi North 4.6 mph - N/A   Clear
10:55 PM 55.4 °F 44.6 °F 67% 29.95 in 10.0 mi NE 3.5 mph - N/A   Clear
11:15 PM 55.4 °F 44.6 °F 67% 29.95 in 10.0 mi Calm Calm - N/A   Clear
11:35 PM 53.6 °F 44.6 °F 72% 29.95 in 10.0 mi Calm Calm - N/A   Clear
11:55 PM 51.8 °F 44.6 °F 76% 29.95 in 10.0 mi Calm Calm - N/A   Clear